,,,PA_Meas_PMT16A,,PR_Meas_QMR101_102,,RH_Meas_QMH101,,SR_Meas_QMS101,,TA_Meas_QMH101,,GenWind,,GenWind,
date,time,status,PA,status,PR,status,RH,status,SR,status,TA,status,DirAvg,status,SpdAvg,
2009-03-11, 00:00:04,VALID,1011.1,VALID,0,VALID,92.6224,VALID,0,VALID,23.4974,VALID,71,VALID,0.392188,
2009-03-11, 00:01:04,VALID,1011.13,VALID,0,VALID,92.63,VALID,0,VALID,23.5169,VALID,71,VALID,0,
2009-03-11, 00:02:04,VALID,1011.09,VALID,0,VALID,92.6376,VALID,0,VALID,23.4974,VALID,71,VALID,0,
2009-03-11, 00:03:04,VALID,1011.1,VALID,0,VALID,92.6453,VALID,0.105969,VALID,23.4974,VALID,71,VALID,0.33125,
2009-03-11, 00:04:04,VALID,1011.09,VALID,0,VALID,92.6376,VALID,0,VALID,23.4779,VALID,92,VALID,0.768359,
2009-03-11, 00:05:04,VALID,1011.08,VALID,0,VALID,92.6071,VALID,0.105969,VALID,23.4779,VALID,92,VALID,0.377344,
2009-03-11, 00:06:04,VALID,1011.07,VALID,0,VALID,92.5995,VALID,0,VALID,23.4779,VALID,92,VALID,0,
2009-03-11, 00:07:04,VALID,1011.07,VALID,0,VALID,92.6148,VALID,0.105969,VALID,23.4779,VALID,70,VALID,0.204297,
2009-03-11, 00:08:04,VALID,1011.06,VALID,0,VALID,92.5843,VALID,0,VALID,23.4779,VALID,70,VALID,0,
2009-03-11, 00:09:04,VALID,1011.08,VALID,0,VALID,92.5995,VALID,0,VALID,23.4974,VALID,70,VALID,0,
2009-03-11, 00:10:04,VALID,1011.03,VALID,0,VALID,92.6071,VALID,0.105969,VALID,23.4584,VALID,70,VALID,0,
2009-03-11, 00:11:04,VALID,1011.06,VALID,0,VALID,92.5766,VALID,0,VALID,23.4779,VALID,70,VALID,0,
2009-03-11, 00:12:04,VALID,1011.06,VALID,0,VALID,92.569,VALID,0,VALID,23.4779,VALID,70,VALID,0,
2009-03-11, 00:13:04,VALID,1011.06,VALID,0,VALID,92.5766,VALID,0,VALID,23.4584,VALID,52,VALID,0.342578,
2009-03-11, 00:14:04,VALID,1011.02,VALID,0,VALID,92.5766,VALID,0.105969,VALID,23.4779,VALID,49,VALID,0,
2009-03-11, 00:15:04,VALID,1011.04,VALID,0,VALID,92.6148,VALID,0.105969,VALID,23.4761,VALID,49,VALID,0,
2009-03-11, 00:16:04,VALID,1011.01,VALID,0,VALID,92.6529,VALID,0.105969,VALID,23.4974,VALID,49,VALID,0,
2009-03-11, 00:17:04,VALID,1011.01,VALID,0,VALID,92.6834,VALID,0.105969,VALID,23.4761,VALID,49,VALID,0,
2009-03-11, 00:18:04,VALID,1011.02,VALID,0,VALID,92.7063,VALID,0.105969,VALID,23.4974,VALID,49,VALID,0,
2009-03-11, 00:19:04,VALID,1011.02,VALID,0,VALID,92.7139,VALID,0.105969,VALID,23.4974,VALID,49,VALID,0,
2009-03-11, 00:20:04,VALID,1011,VALID,0,VALID,92.752,VALID,0,VALID,23.4974,VALID,49,VALID,0,
2009-03-11, 00:21:04,VALID,1010.98,VALID,0,VALID,92.7597,VALID,0.105969,VALID,23.4779,VALID,49,VALID,0,
2009-03-11, 00:22:04,VALID,1011,VALID,0,VALID,92.7749,VALID,0.105969,VALID,23.4584,VALID,49,VALID,0,
2009-03-11, 00:23:04,VALID,1010.97,VALID,0,VALID,92.7444,VALID,0,VALID,23.4389,VALID,49,VALID,0,
2009-03-11, 00:24:04,VALID,1010.96,VALID,0,VALID,92.7825,VALID,0,VALID,23.4584,VALID,49,VALID,0,
2009-03-11, 00:25:04,VALID,1010.97,VALID,0,VALID,92.7444,VALID,0.105969,VALID,23.4389,VALID,49,VALID,0,
2009-03-11, 00:26:04,VALID,1010.94,VALID,0,VALID,92.7292,VALID,0,VALID,23.4602,VALID,49,VALID,0,
2009-03-11, 00:27:04,VALID,1010.94,VALID,0,VALID,92.7292,VALID,0,VALID,23.4389,VALID,49,VALID,0,
2009-03-11, 00:28:04,VALID,1010.94,VALID,0,VALID,92.7139,VALID,0,VALID,23.4389,VALID,49,VALID,0,
2009-03-11, 00:29:04,VALID,1010.91,VALID,0,VALID,92.752,VALID,0.105969,VALID,23.4584,VALID,49,VALID,0,
2009-03-11, 00:30:04,VALID,1010.88,VALID,0,VALID,92.7597,VALID,0,VALID,23.4389,VALID,49,VALID,0,
2009-03-11, 00:31:04,VALID,1010.87,VALID,0,VALID,92.7597,VALID,0.105969,VALID,23.4389,VALID,49,VALID,0,
2009-03-11, 00:32:04,VALID,1010.83,VALID,0,VALID,92.7597,VALID,0.105969,VALID,23.4194,VALID,49,VALID,0,
2009-03-11, 00:33:04,VALID,1010.83,VALID,0,VALID,92.7749,VALID,0.105969,VALID,23.4194,VALID,173,VALID,0,
2009-03-11, 00:34:04,VALID,1010.84,VALID,0,VALID,92.8054,VALID,0,VALID,23.4194,VALID,173,VALID,0,
2009-03-11, 00:35:04,VALID,1010.83,VALID,0,VALID,92.8664,VALID,0.105969,VALID,23.4389,VALID,173,VALID,0,
2009-03-11, 00:36:04,VALID,1010.83,VALID,0,VALID,92.9122,VALID,0.105969,VALID,23.4194,VALID,173,VALID,0,
2009-03-11, 00:37:04,VALID,1010.81,VALID,0,VALID,92.9351,VALID,0.105969,VALID,23.4194,VALID,173,VALID,0,
2009-03-11, 00:38:04,VALID,1010.8,VALID,0,VALID,92.9656,VALID,0,VALID,23.3982,VALID,196,VALID,0.451562,
2009-03-11, 00:39:04,VALID,1010.82,VALID,0,VALID,92.9656,VALID,0.105969,VALID,23.4194,VALID,196,VALID,0.625391,
2009-03-11, 00:40:04,VALID,1010.79,VALID,0,VALID,92.9884,VALID,0.105969,VALID,23.3805,VALID,196,VALID,0.678906,
2009-03-11, 00:41:04,VALID,1010.78,VALID,0,VALID,93.0037,VALID,0.105969,VALID,23.3805,VALID,191,VALID,0.705469,
2009-03-11, 00:42:04,VALID,1010.76,VALID,0,VALID,92.9961,VALID,0.105969,VALID,23.3592,VALID,183,VALID,0.909375,
2009-03-11, 00:43:04,VALID,1010.79,VALID,0,VALID,93.0266,VALID,0,VALID,23.3628,VALID,181,VALID,0.634375,
2009-03-11, 00:44:04,VALID,1010.81,VALID,0,VALID,93.0342,VALID,0,VALID,23.3433,VALID,181,VALID,0.488281,
2009-03-11, 00:45:04,VALID,1010.83,VALID,0,VALID,93.0418,VALID,0,VALID,23.3628,VALID,181,VALID,0.0742188,
2009-03-11, 00:46:04,VALID,1010.81,VALID,0,VALID,93.0494,VALID,0,VALID,23.3628,VALID,181,VALID,0.0484375,
2009-03-11, 00:47:04,VALID,1010.8,VALID,0,VALID,93.0799,VALID,0,VALID,23.3415,VALID,181,VALID,0,
2009-03-11, 00:48:04,VALID,1010.79,VALID,0,VALID,93.0876,VALID,0,VALID,23.3628,VALID,181,VALID,0,
2009-03-11, 00:49:04,VALID,1010.77,VALID,0,VALID,93.0723,VALID,0,VALID,23.3628,VALID,140,VALID,0.155469,
2009-03-11, 00:50:04,VALID,1010.78,VALID,0,VALID,93.0799,VALID,0,VALID,23.3628,VALID,140,VALID,0.00351562,
2009-03-11, 00:51:04,VALID,1010.78,VALID,0,VALID,93.0876,VALID,0,VALID,23.3628,VALID,140,VALID,0.0542969,
2009-03-11, 00:52:04,VALID,1010.76,VALID,0,VALID,93.1028,VALID,0,VALID,23.3628,VALID,140,VALID,0,
2009-03-11, 00:53:04,VALID,1010.79,VALID,0,VALID,93.1333,VALID,0,VALID,23.3628,VALID,140,VALID,0,
2009-03-11, 00:54:04,VALID,1010.75,VALID,0,VALID,93.1181,VALID,0,VALID,23.3628,VALID,140,VALID,0,
2009-03-11, 00:55:04,VALID,1010.77,VALID,0,VALID,93.1257,VALID,0,VALID,23.3628,VALID,140,VALID,0,
2009-03-11, 00:56:05,VALID,1010.78,VALID,0,VALID,93.1486,VALID,0,VALID,23.3823,VALID,62,VALID,0.376953,
2009-03-11, 00:57:04,VALID,1010.76,VALID,0,VALID,93.1333,VALID,0,VALID,23.361,VALID,57,VALID,0,
2009-03-11, 00:58:04,VALID,1010.76,VALID,0,VALID,93.1638,VALID,0,VALID,23.3415,VALID,57,VALID,0,
2009-03-11, 00:59:05,VALID,1010.77,VALID,0,VALID,93.1791,VALID,0,VALID,23.3628,VALID,57,VALID,0,
2009-03-11, 01:00:05,VALID,1010.77,VALID,0,VALID,93.1867,VALID,0,VALID,23.322,VALID,57,VALID,0.229687,
2009-03-11, 01:01:05,VALID,1010.79,VALID,0,VALID,93.2096,VALID,0,VALID,23.3628,VALID,57,VALID,0,
2009-03-11, 01:02:05,VALID,1010.74,VALID,0,VALID,93.2325,VALID,0,VALID,23.3415,VALID,67,VALID,0.286328,
2009-03-11, 01:03:05,VALID,1010.75,VALID,0,VALID,93.2477,VALID,0,VALID,23.3628,VALID,74,VALID,0.316016,
2009-03-11, 01:04:05,VALID,1010.75,VALID,0,VALID,93.2477,VALID,0,VALID,23.3628,VALID,135,VALID,0.508594,
2009-03-11, 01:05:05,VALID,1010.72,VALID,0,VALID,93.2477,VALID,0,VALID,23.384,VALID,152,VALID,0.600781,
2009-03-11, 01:06:05,VALID,1010.72,VALID,0,VALID,93.2325,VALID,0,VALID,23.3823,VALID,152,VALID,0.544141,
2009-03-11, 01:07:05,VALID,1010.72,VALID,0,VALID,93.2096,VALID,0,VALID,23.3823,VALID,152,VALID,0.421875,
2009-03-11, 01:08:05,VALID,1010.73,VALID,0,VALID,93.1943,VALID,0,VALID,23.3823,VALID,152,VALID,0.3375,
2009-03-11, 01:09:05,VALID,1010.71,VALID,0,VALID,93.1791,VALID,0,VALID,23.3823,VALID,152,VALID,0.139062,
2009-03-11, 01:10:05,VALID,1010.71,VALID,0,VALID,93.1638,VALID,0,VALID,23.3823,VALID,128,VALID,0.702734,
2009-03-11, 01:11:05,VALID,1010.71,VALID,0,VALID,93.1715,VALID,0,VALID,23.3823,VALID,117,VALID,0.209766,
2009-03-11, 01:12:05,VALID,1010.72,VALID,0,VALID,93.141,VALID,0,VALID,23.3823,VALID,117,VALID,0,
2009-03-11, 01:13:05,VALID,1010.72,VALID,0,VALID,93.1333,VALID,0,VALID,23.4,VALID,117,VALID,0,
2009-03-11, 01:14:05,VALID,1010.7,VALID,0,VALID,93.1105,VALID,0,VALID,23.4,VALID,117,VALID,0,
2009-03-11, 01:15:05,VALID,1010.69,VALID,0,VALID,93.1028,VALID,0,VALID,23.4,VALID,74,VALID,0.839844,
2009-03-11, 01:16:05,VALID,1010.68,VALID,0,VALID,93.1105,VALID,0,VALID,23.4,VALID,79,VALID,0.417188,
2009-03-11, 01:17:05,VALID,1010.71,VALID,0,VALID,93.0876,VALID,0.105969,VALID,23.4,VALID,70,VALID,0,
2009-03-11, 01:18:05,VALID,1010.68,VALID,0,VALID,93.0647,VALID,0,VALID,23.3805,VALID,69,VALID,0,
2009-03-11, 01:19:05,VALID,1010.7,VALID,0,VALID,93.0494,VALID,0,VALID,23.3805,VALID,41,VALID,0.432422,
2009-03-11, 01:20:05,VALID,1010.7,VALID,0,VALID,93.0571,VALID,0,VALID,23.3805,VALID,41,VALID,0.479297,
2009-03-11, 01:21:05,VALID,1010.68,VALID,0,VALID,93.0342,VALID,0,VALID,23.361,VALID,41,VALID,0.642187,
2009-03-11, 01:22:05,VALID,1010.66,VALID,0,VALID,93.0571,VALID,0,VALID,23.3415,VALID,45,VALID,0.839063,
2009-03-11, 01:23:05,VALID,1010.63,VALID,0,VALID,93.0571,VALID,0.105969,VALID,23.3415,VALID,50,VALID,0.301953,
2009-03-11, 01:24:05,VALID,1010.63,VALID,0,VALID,93.0647,VALID,0,VALID,23.322,VALID,57,VALID,0.579687,
2009-03-11, 01:25:05,VALID,1010.61,VALID,0,VALID,93.0799,VALID,0,VALID,23.3026,VALID,57,VALID,0.0269531,
2009-03-11, 01:26:05,VALID,1010.58,VALID,0,VALID,93.1028,VALID,0,VALID,23.3026,VALID,57,VALID,0,
2009-03-11, 01:27:05,VALID,1010.53,VALID,0,VALID,93.1028,VALID,0,VALID,23.2831,VALID,59,VALID,0,
2009-03-11, 01:28:05,VALID,1010.51,VALID,0,VALID,93.1105,VALID,0,VALID,23.2848,VALID,68,VALID,0,
2009-03-11, 01:29:05,VALID,1010.52,VALID,0,VALID,93.1791,VALID,0,VALID,23.2848,VALID,68,VALID,0,
2009-03-11, 01:30:05,VALID,1010.48,VALID,0,VALID,93.1791,VALID,0,VALID,23.2441,VALID,72,VALID,0,
2009-03-11, 01:31:05,VALID,1010.49,VALID,0,VALID,93.2096,VALID,0,VALID,23.2866,VALID,89,VALID,0.564844,
2009-03-11, 01:32:05,VALID,1010.45,VALID,0,VALID,93.2325,VALID,0,VALID,23.2866,VALID,86,VALID,0.791797,
2009-03-11, 01:33:05,VALID,1010.44,VALID,0,VALID,93.2553,VALID,0,VALID,23.2459,VALID,79,VALID,0.441797,
2009-03-11, 01:34:05,VALID,1010.43,VALID,0,VALID,93.2706,VALID,0,VALID,23.2459,VALID,94,VALID,0.602734,
2009-03-11, 01:35:05,VALID,1010.43,VALID,0,VALID,93.2935,VALID,0,VALID,23.2264,VALID,88,VALID,0.664453,
2009-03-11, 01:36:05,VALID,1010.4,VALID,0,VALID,93.3163,VALID,0,VALID,23.2476,VALID,94,VALID,0.842188,
2009-03-11, 01:37:05,VALID,1010.39,VALID,0,VALID,93.324,VALID,0,VALID,23.2476,VALID,102,VALID,0.792969,
2009-03-11, 01:38:05,VALID,1010.38,VALID,0,VALID,93.324,VALID,0,VALID,23.2069,VALID,96,VALID,0.348437,
2009-03-11, 01:39:05,VALID,1010.38,VALID,0,VALID,93.3316,VALID,0,VALID,23.2069,VALID,104,VALID,0.775391,
2009-03-11, 01:40:05,VALID,1010.36,VALID,0,VALID,93.3392,VALID,0,VALID,23.2264,VALID,83,VALID,1.02188,
2009-03-11, 01:41:05,VALID,1010.37,VALID,0,VALID,93.3545,VALID,0,VALID,23.2264,VALID,96,VALID,0.641797,
2009-03-11, 01:42:05,VALID,1010.35,VALID,0,VALID,93.3468,VALID,0,VALID,23.2069,VALID,83,VALID,0.486328,
2009-03-11, 01:43:05,VALID,1010.34,VALID,0,VALID,93.3468,VALID,0,VALID,23.2069,VALID,100,VALID,0.668359,
2009-03-11, 01:44:05,VALID,1010.33,VALID,0,VALID,93.3392,VALID,0,VALID,23.2069,VALID,132,VALID,0.737891,
2009-03-11, 01:45:05,VALID,1010.32,VALID,0,VALID,93.3392,VALID,0,VALID,23.2264,VALID,135,VALID,0.460547,
2009-03-11, 01:46:05,VALID,1010.31,VALID,0,VALID,93.3468,VALID,0,VALID,23.2264,VALID,130,VALID,0.522656,
2009-03-11, 01:47:05,VALID,1010.27,VALID,0,VALID,93.3468,VALID,0,VALID,23.2069,VALID,128,VALID,0.419141,
2009-03-11, 01:48:05,VALID,1010.27,VALID,0,VALID,93.3621,VALID,0,VALID,23.1874,VALID,148,VALID,0.945313,
2009-03-11, 01:49:05,VALID,1010.25,VALID,0,VALID,93.3316,VALID,0,VALID,23.1485,VALID,139,VALID,1.06172,
2009-03-11, 01:50:05,VALID,1010.24,VALID,0,VALID,93.3163,VALID,0,VALID,23.1697,VALID,138,VALID,0.675,
2009-03-11, 01:51:05,VALID,1010.21,VALID,0,VALID,93.324,VALID,0,VALID,23.1485,VALID,125,VALID,0.719922,
2009-03-11, 01:52:05,VALID,1010.19,VALID,0,VALID,93.3392,VALID,0,VALID,23.1502,VALID,124,VALID,0.451562,
2009-03-11, 01:53:05,VALID,1010.18,VALID,0,VALID,93.3468,VALID,0,VALID,23.1095,VALID,128,VALID,0.441406,
2009-03-11, 01:54:05,VALID,1010.19,VALID,0,VALID,93.3621,VALID,0,VALID,23.1095,VALID,123,VALID,0.925781,
2009-03-11, 01:55:05,VALID,1010.2,VALID,0,VALID,93.385,VALID,0,VALID,23.1307,VALID,128,VALID,0.633594,
2009-03-11, 01:56:05,VALID,1010.18,VALID,0,VALID,93.4002,VALID,0,VALID,23.1095,VALID,128,VALID,0.433984,
2009-03-11, 01:57:05,VALID,1010.18,VALID,0,VALID,93.4155,VALID,0,VALID,23.1095,VALID,121,VALID,0.236328,
2009-03-11, 01:58:05,VALID,1010.17,VALID,0,VALID,93.4155,VALID,0,VALID,23.09,VALID,121,VALID,0,
2009-03-11, 01:59:05,VALID,1010.16,VALID,0,VALID,93.4384,VALID,0,VALID,23.09,VALID,82,VALID,0.743359,
2009-03-11, 02:00:05,VALID,1010.17,VALID,0,VALID,93.4231,VALID,0,VALID,23.0918,VALID,143,VALID,0.582031,
2009-03-11, 02:01:05,VALID,1010.16,VALID,0,VALID,93.4231,VALID,0,VALID,23.0705,VALID,140,VALID,0.269531,
2009-03-11, 02:02:05,VALID,1010.12,VALID,0,VALID,93.446,VALID,0,VALID,23.09,VALID,141,VALID,0.441797,
2009-03-11, 02:03:05,VALID,1010.1,VALID,0,VALID,93.446,VALID,0,VALID,23.0705,VALID,142,VALID,0.603906,
2009-03-11, 02:04:05,VALID,1010.12,VALID,0,VALID,93.4536,VALID,0,VALID,23.0705,VALID,144,VALID,0.564062,
2009-03-11, 02:05:05,VALID,1010.11,VALID,0,VALID,93.4536,VALID,0,VALID,23.0705,VALID,134,VALID,0.569922,
2009-03-11, 02:06:05,VALID,1010.07,VALID,0,VALID,93.4536,VALID,0,VALID,23.0723,VALID,134,VALID,0.567969,
2009-03-11, 02:07:05,VALID,1010.06,VALID,0,VALID,93.4307,VALID,0,VALID,23.09,VALID,134,VALID,0.553516,
2009-03-11, 02:08:05,VALID,1010.04,VALID,0,VALID,93.4612,VALID,0,VALID,23.0705,VALID,137,VALID,0.488281,
2009-03-11, 02:09:05,VALID,1010.01,VALID,0,VALID,93.446,VALID,0,VALID,23.0918,VALID,137,VALID,0.0707031,
2009-03-11, 02:10:05,VALID,1010,VALID,0,VALID,93.4689,VALID,0,VALID,23.0705,VALID,144,VALID,0.516016,
2009-03-11, 02:11:05,VALID,1009.97,VALID,0,VALID,93.4307,VALID,0,VALID,23.0918,VALID,141,VALID,0.455469,
2009-03-11, 02:12:05,VALID,1009.95,VALID,0,VALID,93.446,VALID,0,VALID,23.0705,VALID,139,VALID,0.171875,
2009-03-11, 02:13:05,VALID,1009.95,VALID,0,VALID,93.4536,VALID,0,VALID,23.0493,VALID,139,VALID,0.212891,
2009-03-11, 02:14:05,VALID,1009.97,VALID,0,VALID,93.4384,VALID,0,VALID,23.0511,VALID,139,VALID,0,
2009-03-11, 02:15:05,VALID,1009.92,VALID,0,VALID,93.4231,VALID,0,VALID,23.0705,VALID,139,VALID,0,
2009-03-11, 02:16:05,VALID,1009.93,VALID,0,VALID,93.446,VALID,0,VALID,23.0705,VALID,139,VALID,0,
2009-03-11, 02:17:05,VALID,1009.92,VALID,0,VALID,93.4612,VALID,0,VALID,23.0511,VALID,139,VALID,0,
2009-03-11, 02:18:05,VALID,1009.93,VALID,0,VALID,93.4536,VALID,0,VALID,23.0705,VALID,139,VALID,0,
2009-03-11, 02:19:05,VALID,1009.93,VALID,0,VALID,93.4612,VALID,0,VALID,23.0511,VALID,139,VALID,0,
2009-03-11, 02:20:05,VALID,1009.89,VALID,0,VALID,93.446,VALID,0,VALID,23.0511,VALID,135,VALID,0,
2009-03-11, 02:21:05,VALID,1009.91,VALID,0,VALID,93.4307,VALID,0,VALID,23.0528,VALID,124,VALID,0,
2009-03-11, 02:22:05,VALID,1009.89,VALID,0,VALID,93.4536,VALID,0,VALID,23.0316,VALID,124,VALID,0,
2009-03-11, 02:23:05,VALID,1009.88,VALID,0,VALID,93.4536,VALID,0,VALID,23.0316,VALID,118,VALID,0,
2009-03-11, 02:24:05,VALID,1009.87,VALID,0,VALID,93.4536,VALID,0,VALID,23.0103,VALID,118,VALID,0,
2009-03-11, 02:25:05,VALID,1009.87,VALID,0,VALID,93.4765,VALID,0,VALID,23.0511,VALID,116,VALID,0,
2009-03-11, 02:26:05,VALID,1009.84,VALID,0,VALID,93.4765,VALID,0,VALID,23.0316,VALID,84,VALID,0,
2009-03-11, 02:27:05,VALID,1009.82,VALID,0,VALID,93.4917,VALID,0,VALID,23.0511,VALID,89,VALID,0.0121094,
2009-03-11, 02:28:05,VALID,1009.79,VALID,0,VALID,93.4765,VALID,0,VALID,23.0316,VALID,88,VALID,0,
2009-03-11, 02:29:05,VALID,1009.77,VALID,0,VALID,93.4917,VALID,0,VALID,23.0316,VALID,89,VALID,0,
2009-03-11, 02:30:05,VALID,1009.76,VALID,0,VALID,93.4994,VALID,0,VALID,23.0316,VALID,90,VALID,0,
2009-03-11, 02:31:05,VALID,1009.78,VALID,0,VALID,93.4917,VALID,0,VALID,23.0316,VALID,100,VALID,0,
2009-03-11, 02:32:05,VALID,1009.76,VALID,0,VALID,93.4994,VALID,0,VALID,22.9909,VALID,93,VALID,0,
2009-03-11, 02:33:05,VALID,1009.75,VALID,0,VALID,93.4994,VALID,0,VALID,23.0121,VALID,93,VALID,0,
2009-03-11, 02:34:05,VALID,1009.74,VALID,0,VALID,93.4994,VALID,0,VALID,23.0121,VALID,103,VALID,0,
2009-03-11, 02:35:05,VALID,1009.69,VALID,0,VALID,93.4917,VALID,0,VALID,23.0121,VALID,85,VALID,0,
2009-03-11, 02:36:05,VALID,1009.71,VALID,0,VALID,93.4917,VALID,0,VALID,23.0103,VALID,85,VALID,0,
2009-03-11, 02:37:05,VALID,1009.68,VALID,0,VALID,93.507,VALID,0,VALID,23.0121,VALID,85,VALID,0,
2009-03-11, 02:38:05,VALID,1009.7,VALID,0,VALID,93.4994,VALID,0,VALID,23.0121,VALID,81,VALID,0,
2009-03-11, 02:39:05,VALID,1009.7,VALID,0,VALID,93.507,VALID,0,VALID,22.9926,VALID,84,VALID,0,
2009-03-11, 02:40:05,VALID,1009.72,VALID,0,VALID,93.4917,VALID,0,VALID,22.9926,VALID,60,VALID,0,
2009-03-11, 02:41:05,VALID,1009.7,VALID,0,VALID,93.5222,VALID,0,VALID,22.9731,VALID,66,VALID,0,
2009-03-11, 02:42:05,VALID,1009.7,VALID,0,VALID,93.4994,VALID,0,VALID,22.9926,VALID,71,VALID,0,
2009-03-11, 02:43:05,VALID,1009.7,VALID,0,VALID,93.4994,VALID,0,VALID,22.9731,VALID,71,VALID,0,
2009-03-11, 02:44:05,VALID,1009.69,VALID,0,VALID,93.5222,VALID,0,VALID,22.9536,VALID,57,VALID,0,
2009-03-11, 02:45:05,VALID,1009.7,VALID,0,VALID,93.4917,VALID,0,VALID,22.9536,VALID,56,VALID,0.639453,
2009-03-11, 02:46:05,VALID,1009.66,VALID,0,VALID,93.5299,VALID,0,VALID,22.9536,VALID,45,VALID,0.272266,
2009-03-11, 02:47:05,VALID,1009.67,VALID,0,VALID,93.5222,VALID,0,VALID,22.9129,VALID,50,VALID,0.335938,
2009-03-11, 02:48:05,VALID,1009.67,VALID,0,VALID,93.5222,VALID,0,VALID,22.9342,VALID,92,VALID,0.479688,
2009-03-11, 02:49:05,VALID,1009.67,VALID,0,VALID,93.5299,VALID,0,VALID,22.9342,VALID,100,VALID,0.302734,
2009-03-11, 02:50:05,VALID,1009.69,VALID,0,VALID,93.5299,VALID,0,VALID,22.9342,VALID,100,VALID,0.683984,
2009-03-11, 02:51:05,VALID,1009.69,VALID,0,VALID,93.5451,VALID,0,VALID,22.9342,VALID,70,VALID,0.694531,
2009-03-11, 02:52:05,VALID,1009.68,VALID,0,VALID,93.5604,VALID,0,VALID,22.9342,VALID,71,VALID,0.444922,
2009-03-11, 02:53:05,VALID,1009.72,VALID,0,VALID,93.568,VALID,0,VALID,22.9342,VALID,71,VALID,0.335156,
2009-03-11, 02:54:05,VALID,1009.73,VALID,0,VALID,93.5604,VALID,0,VALID,22.9147,VALID,93,VALID,0.248437,
2009-03-11, 02:55:05,VALID,1009.72,VALID,0,VALID,93.568,VALID,0,VALID,22.9147,VALID,77,VALID,0,
2009-03-11, 02:56:05,VALID,1009.74,VALID,0,VALID,93.5756,VALID,0,VALID,22.9147,VALID,77,VALID,0,
2009-03-11, 02:57:05,VALID,1009.73,VALID,0,VALID,93.5756,VALID,0,VALID,22.9147,VALID,88,VALID,0.501562,
2009-03-11, 02:58:05,VALID,1009.72,VALID,0,VALID,93.568,VALID,0,VALID,22.9147,VALID,82,VALID,0.432813,
2009-03-11, 02:59:05,VALID,1009.73,VALID,0,VALID,93.568,VALID,0,VALID,22.9147,VALID,87,VALID,0.179688,
2009-03-11, 03:00:05,VALID,1009.74,VALID,0,VALID,93.5756,VALID,0,VALID,22.8952,VALID,85,VALID,0.379297,
2009-03-11, 03:01:05,VALID,1009.67,VALID,0,VALID,93.5604,VALID,0,VALID,22.9147,VALID,90,VALID,0.516016,
2009-03-11, 03:02:05,VALID,1009.72,VALID,0,VALID,93.5756,VALID,0,VALID,22.9164,VALID,87,VALID,0.317187,
2009-03-11, 03:03:05,VALID,1009.7,VALID,0,VALID,93.5756,VALID,0,VALID,22.8952,VALID,87,VALID,0.292188,
2009-03-11, 03:04:05,VALID,1009.72,VALID,0,VALID,93.5451,VALID,0,VALID,22.8952,VALID,92,VALID,0.480078,
2009-03-11, 03:05:05,VALID,1009.7,VALID,0,VALID,93.5756,VALID,0,VALID,22.8952,VALID,91,VALID,0.428516,
2009-03-11, 03:06:05,VALID,1009.7,VALID,0,VALID,93.5604,VALID,0,VALID,22.8952,VALID,88,VALID,0.0253906,
2009-03-11, 03:07:05,VALID,1009.68,VALID,0,VALID,93.5375,VALID,0,VALID,22.8952,VALID,91,VALID,0.367188,
2009-03-11, 03:08:05,VALID,1009.68,VALID,0,VALID,93.5451,VALID,0,VALID,22.8952,VALID,89,VALID,0,
2009-03-11, 03:09:05,VALID,1009.67,VALID,0,VALID,93.5222,VALID,0,VALID,22.8952,VALID,89,VALID,0,
2009-03-11, 03:10:05,VALID,1009.67,VALID,0,VALID,93.5146,VALID,0,VALID,22.8952,VALID,68,VALID,0.542578,
2009-03-11, 03:11:05,VALID,1009.65,VALID,0,VALID,93.5299,VALID,0,VALID,22.8952,VALID,67,VALID,0.513281,
2009-03-11, 03:12:05,VALID,1009.67,VALID,0,VALID,93.5146,VALID,0,VALID,22.8952,VALID,64,VALID,0.390625,
2009-03-11, 03:13:05,VALID,1009.63,VALID,0,VALID,93.507,VALID,0.105969,VALID,22.8935,VALID,63,VALID,0.24375,
2009-03-11, 03:14:05,VALID,1009.67,VALID,0,VALID,93.4917,VALID,0,VALID,22.874,VALID,63,VALID,0.241406,
2009-03-11, 03:15:05,VALID,1009.66,VALID,0,VALID,93.4841,VALID,0.105969,VALID,22.874,VALID,60,VALID,0,
2009-03-11, 03:16:05,VALID,1009.64,VALID,0,VALID,93.4612,VALID,0.105969,VALID,22.874,VALID,49,VALID,0.00195313,
2009-03-11, 03:17:05,VALID,1009.66,VALID,0,VALID,93.4689,VALID,0.105969,VALID,22.8545,VALID,49,VALID,0,
2009-03-11, 03:18:05,VALID,1009.63,VALID,0,VALID,93.4689,VALID,0.105969,VALID,22.874,VALID,49,VALID,0.354297,
2009-03-11, 03:19:05,VALID,1009.62,VALID,0,VALID,93.4689,VALID,0,VALID,22.8757,VALID,49,VALID,0,
2009-03-11, 03:20:05,VALID,1009.57,VALID,0,VALID,93.4689,VALID,0.105969,VALID,22.835,VALID,49,VALID,0,
2009-03-11, 03:21:05,VALID,1009.56,VALID,0,VALID,93.4612,VALID,0,VALID,22.835,VALID,51,VALID,0.258984,
2009-03-11, 03:22:05,VALID,1009.57,VALID,0,VALID,93.4841,VALID,0,VALID,22.835,VALID,67,VALID,0.361719,
2009-03-11, 03:23:05,VALID,1009.55,VALID,0,VALID,93.4765,VALID,0,VALID,22.835,VALID,79,VALID,0.384766,
2009-03-11, 03:24:05,VALID,1009.54,VALID,0,VALID,93.4841,VALID,0.105969,VALID,22.8562,VALID,79,VALID,0.514063,
2009-03-11, 03:25:05,VALID,1009.53,VALID,0,VALID,93.4917,VALID,0.105969,VALID,22.835,VALID,81,VALID,0.559766,
2009-03-11, 03:26:05,VALID,1009.53,VALID,0,VALID,93.4917,VALID,0.105969,VALID,22.835,VALID,108,VALID,0.5125,
2009-03-11, 03:27:05,VALID,1009.49,VALID,0,VALID,93.4841,VALID,0.105969,VALID,22.835,VALID,99,VALID,1.08828,
2009-03-11, 03:28:05,VALID,1009.52,VALID,0,VALID,93.507,VALID,0.105969,VALID,22.8545,VALID,109,VALID,0.980078,
2009-03-11, 03:29:05,VALID,1009.51,VALID,0,VALID,93.507,VALID,0.105969,VALID,22.874,VALID,120,VALID,0.709375,
2009-03-11, 03:30:05,VALID,1009.52,VALID,0,VALID,93.4765,VALID,0.105969,VALID,22.874,VALID,125,VALID,0.0769531,
2009-03-11, 03:31:05,VALID,1009.54,VALID,0,VALID,93.4841,VALID,0.105969,VALID,22.8545,VALID,106,VALID,0.439063,
2009-03-11, 03:32:05,VALID,1009.51,VALID,0,VALID,93.4612,VALID,0.105969,VALID,22.8333,VALID,110,VALID,0.739844,
2009-03-11, 03:33:05,VALID,1009.5,VALID,0,VALID,93.4612,VALID,0.105969,VALID,22.8545,VALID,125,VALID,0.524219,
2009-03-11, 03:34:05,VALID,1009.5,VALID,0,VALID,93.4536,VALID,0.105969,VALID,22.8545,VALID,123,VALID,0.360547,
2009-03-11, 03:35:05,VALID,1009.51,VALID,0,VALID,93.446,VALID,0.105969,VALID,22.8545,VALID,123,VALID,0.421875,
2009-03-11, 03:36:05,VALID,1009.48,VALID,0,VALID,93.4231,VALID,0,VALID,22.835,VALID,126,VALID,0.263281,
2009-03-11, 03:37:05,VALID,1009.5,VALID,0,VALID,93.4155,VALID,0.105969,VALID,22.835,VALID,126,VALID,0.521875,
2009-03-11, 03:38:05,VALID,1009.49,VALID,0,VALID,93.4307,VALID,0,VALID,22.835,VALID,127,VALID,0.300391,
2009-03-11, 03:39:05,VALID,1009.46,VALID,0,VALID,93.4155,VALID,0,VALID,22.835,VALID,127,VALID,0,
2009-03-11, 03:40:04,VALID,1009.46,VALID,0,VALID,93.4002,VALID,0,VALID,22.8155,VALID,127,VALID,0,
2009-03-11, 03:41:04,VALID,1009.48,VALID,0,VALID,93.4155,VALID,0,VALID,22.8368,VALID,127,VALID,0,
2009-03-11, 03:42:04,VALID,1009.45,VALID,0,VALID,93.4002,VALID,0,VALID,22.8155,VALID,127,VALID,0.710547,
2009-03-11, 03:43:04,VALID,1009.47,VALID,0,VALID,93.4002,VALID,0,VALID,22.7978,VALID,138,VALID,0.552344,
2009-03-11, 03:44:04,VALID,1009.42,VALID,0,VALID,93.4155,VALID,0,VALID,22.7978,VALID,145,VALID,0.939453,
2009-03-11, 03:45:04,VALID,1009.42,VALID,0,VALID,93.4002,VALID,0,VALID,22.819,VALID,136,VALID,0.444922,
2009-03-11, 03:46:04,VALID,1009.43,VALID,0,VALID,93.4155,VALID,0,VALID,22.7978,VALID,136,VALID,0.408594,
2009-03-11, 03:47:04,VALID,1009.46,VALID,0,VALID,93.4002,VALID,0,VALID,22.7978,VALID,136,VALID,0.259766,
2009-03-11, 03:48:04,VALID,1009.43,VALID,0,VALID,93.4002,VALID,0,VALID,22.7783,VALID,158,VALID,0.498047,